| time (UTC) | temp F | wind direction | speed MPH | gust MPH | rain 1hr in | rain 24hr in | rain mn in | humidity % | barometer mb |
| 20260508164047 | 73 | 25 | 5.0 | 12.0 | 0.00 | 0.05 | 0.00 | 81 | 1015.2 |
| 20260508163546 | 73 | 47 | 6.0 | 12.0 | 0.00 | 0.05 | 0.00 | 81 | 1015.3 |
| 20260508163055 | 73 | 49 | 6.0 | 12.0 | 0.00 | 0.05 | 0.00 | 81 | 1015.5 |
| 20260508162549 | 73 | 61 | 5.0 | 12.0 | 0.00 | 0.05 | 0.00 | 81 | 1015.5 |
| 20260508162048 | 73 | 43 | 6.0 | 11.0 | 0.00 | 0.05 | 0.00 | 81 | 1015.6 |
| 20260508161558 | 73 | 12 | 4.0 | 9.0 | 0.00 | 0.05 | 0.00 | 81 | 1015.8 |
| 20260508161048 | 73 | 46 | 5.0 | 9.0 | 0.00 | 0.05 | 0.00 | 81 | 1015.7 |
| 20260508160549 | 73 | 355 | 4.0 | 9.0 | 0.00 | 0.05 | 0.00 | 81 | 1015.7 |
| 20260508160100 | 73 | 98 | 3.0 | 9.0 | 0.00 | 0.05 | 0.00 | 81 | 1015.7 |
| 20260508155547 | 73 | 45 | 4.0 | 9.0 | 0.00 | 0.05 | 0.00 | 82 | 1015.6 |
| 20260508155047 | 73 | 66 | 3.0 | 7.0 | 0.00 | 0.05 | 0.00 | 82 | 1015.6 |
| 20260508154555 | 72 | 96 | 2.0 | 6.0 | 0.00 | 0.05 | 0.00 | 82 | 1015.8 |
| 20260508154044 | 72 | 60 | 3.0 | 8.0 | 0.00 | 0.05 | 0.00 | 82 | 1015.7 |
| 20260508153548 | 72 | 57 | 2.0 | 8.0 | 0.00 | 0.05 | 0.00 | 82 | 1015.8 |
| 20260508153057 | 72 | 95 | 3.0 | 8.0 | 0.00 | 0.05 | 0.00 | 82 | 1015.8 |
| 20260508152548 | 72 | 74 | 3.0 | 9.0 | 0.00 | 0.05 | 0.00 | 82 | 1015.6 |
| 20260508152047 | 72 | 82 | 3.0 | 9.0 | 0.00 | 0.05 | 0.00 | 81 | 1015.5 |
| 20260508151608 | 72 | 46 | 4.0 | 9.0 | 0.00 | 0.05 | 0.00 | 81 | 1015.6 |
| 20260508151045 | 72 | 54 | 4.0 | 8.0 | 0.00 | 0.05 | 0.00 | 81 | 1015.6 |
| 20260508150546 | 72 | 54 | 3.0 | 7.0 | 0.00 | 0.05 | 0.00 | 80 | 1015.7 |
| 20260508150124 | 72 | 65 | 3.0 | 7.0 | 0.00 | 0.05 | 0.00 | 80 | 1015.7 |
| 20260508145549 | 72 | 52 | 3.0 | 10.0 | 0.00 | 0.05 | 0.00 | 80 | 1015.7 |
| 20260508145045 | 72 | 57 | 4.0 | 10.0 | 0.00 | 0.05 | 0.00 | 81 | 1015.7 |
| 20260508144604 | 72 | 59 | 2.0 | 9.0 | 0.00 | 0.05 | 0.00 | 81 | 1015.7 |
| 20260508144048 | 72 | 13 | 4.0 | 9.0 | 0.00 | 0.05 | 0.00 | 80 | 1015.7 |
| 20260508143547 | 71 | 43 | 3.0 | 8.0 | 0.00 | 0.05 | 0.00 | 81 | 1015.7 |
| 20260508143054 | 71 | 62 | 2.0 | 9.0 | 0.00 | 0.05 | 0.00 | 81 | 1015.6 |
| 20260508142545 | 71 | 19 | 4.0 | 9.0 | 0.00 | 0.05 | 0.00 | 80 | 1015.6 |
| 20260508142052 | 71 | 44 | 4.0 | 9.0 | 0.00 | 0.05 | 0.00 | 80 | 1015.6 |
| 20260508141607 | 71 | 51 | 3.0 | 9.0 | 0.00 | 0.05 | 0.00 | 80 | 1015.8 |
| 20260508141046 | 71 | 33 | 4.0 | 9.0 | 0.00 | 0.05 | 0.00 | 81 | 1015.9 |
| 20260508140547 | 71 | 23 | 4.0 | 9.0 | 0.00 | 0.05 | 0.00 | 81 | 1015.8 |
| 20260508140107 | 71 | 42 | 3.0 | 8.0 | 0.00 | 0.05 | 0.00 | 81 | 1015.6 |
| 20260508135544 | 71 | 96 | 2.0 | 9.0 | 0.00 | 0.05 | 0.00 | 81 | 1015.6 |
| 20260508135045 | 71 | 78 | 4.0 | 11.0 | 0.00 | 0.05 | 0.00 | 81 | 1015.4 |
| 20260508134551 | 71 | 61 | 5.0 | 11.0 | 0.00 | 0.05 | 0.00 | 81 | 1015.6 |
| 20260508134044 | 71 | 49 | 3.0 | 11.0 | 0.00 | 0.05 | 0.00 | 81 | 1015.5 |
| 20260508133544 | 71 | 55 | 5.0 | 11.0 | 0.00 | 0.05 | 0.00 | 81 | 1015.6 |
| 20260508133052 | 71 | 44 | 5.0 | 11.0 | 0.00 | 0.05 | 0.00 | 81 | 1015.6 |
| 20260508132545 | 71 | 59 | 5.0 | 11.0 | 0.00 | 0.05 | 0.00 | 82 | 1015.6 |
| 20260508132048 | 71 | 35 | 4.0 | 12.0 | 0.00 | 0.05 | 0.00 | 82 | 1015.6 |
| 20260508131558 | 71 | 80 | 3.0 | 12.0 | 0.00 | 0.05 | 0.00 | 82 | 1015.6 |
| 20260508131047 | 71 | 49 | 4.0 | 11.0 | 0.00 | 0.05 | 0.00 | 83 | 1015.7 |
| 20260508130548 | 71 | 34 | 6.0 | 11.0 | 0.00 | 0.05 | 0.00 | 83 | 1015.6 |
| 20260508130057 | 70 | 45 | 4.0 | 9.0 | 0.00 | 0.05 | 0.00 | 83 | 1015.6 |
| 20260508125545 | 70 | 52 | 4.0 | 9.0 | 0.00 | 0.05 | 0.00 | 83 | 1015.6 |
| 20260508125048 | 70 | 78 | 2.0 | 8.0 | 0.00 | 0.05 | 0.00 | 84 | 1015.6 |
| 20260508124601 | 70 | 58 | 3.0 | 9.0 | 0.00 | 0.05 | 0.00 | 84 | 1015.7 |
| 20260508124050 | 70 | 39 | 5.0 | 9.0 | 0.00 | 0.05 | 0.00 | 84 | 1015.8 |
| 20260508123546 | 70 | 42 | 3.0 | 9.0 | 0.00 | 0.05 | 0.00 | 84 | 1015.7 |
| 20260508123051 | 70 | 55 | 5.0 | 9.0 | 0.00 | 0.05 | 0.00 | 84 | 1015.6 |
| 20260508122545 | 70 | 67 | 4.0 | 9.0 | 0.00 | 0.05 | 0.00 | 85 | 1015.5 |
| 20260508122047 | 70 | 61 | 4.0 | 8.0 | 0.00 | 0.05 | 0.00 | 85 | 1015.5 |
| 20260508121556 | 70 | 56 | 4.0 | 8.0 | 0.00 | 0.05 | 0.00 | 85 | 1015.4 |
| 20260508121047 | 70 | 61 | 4.0 | 9.0 | 0.00 | 0.05 | 0.00 | 86 | 1015.4 |
| 20260508120545 | 70 | 54 | 4.0 | 9.0 | 0.00 | 0.05 | 0.00 | 86 | 1015.2 |
| 20260508115549 | 70 | 76 | 3.0 | 9.0 | 0.00 | 0.05 | 0.00 | 86 | 1014.7 |
| 20260508115048 | 70 | 32 | 4.0 | 9.0 | 0.00 | 0.05 | 0.00 | 86 | 1015.0 |
| 20260508114603 | 70 | 53 | 4.0 | 11.0 | 0.00 | 0.05 | 0.00 | 86 | 1015.2 |
| 20260508114048 | 70 | 58 | 5.0 | 11.0 | 0.00 | 0.05 | 0.00 | 86 | 1015.1 |
| 20260508113545 | 70 | 47 | 3.0 | 8.0 | 0.00 | 0.05 | 0.00 | 86 | 1015.0 |
| 20260508113124 | 70 | 65 | 3.0 | 11.0 | 0.00 | 0.05 | 0.00 | 86 | 1014.9 |
| 20260508112550 | 70 | 61 | 4.0 | 11.0 | 0.00 | 0.05 | 0.00 | 87 | 1014.7 |
| 20260508112047 | 70 | 55 | 3.0 | 7.0 | 0.00 | 0.05 | 0.00 | 87 | 1014.5 |
| 20260508111556 | 70 | 78 | 3.0 | 8.0 | 0.00 | 0.05 | 0.00 | 87 | 1014.6 |
| 20260508111047 | 70 | 74 | 3.0 | 8.0 | 0.00 | 0.05 | 0.00 | 87 | 1014.6 |
| 20260508110544 | 70 | 47 | 4.0 | 8.0 | 0.00 | 0.05 | 0.00 | 87 | 1014.6 |
| 20260508110054 | 70 | 30 | 3.0 | 7.0 | 0.00 | 0.05 | 0.00 | 87 | 1014.4 |
| 20260508105546 | 70 | 53 | 1.0 | 7.0 | 0.00 | 0.05 | 0.00 | 86 | 1014.2 |
| 20260508105048 | 70 | 34 | 2.0 | 8.0 | 0.00 | 0.05 | 0.00 | 86 | 1014.1 |
| 20260508104557 | 70 | 41 | 3.0 | 8.0 | 0.00 | 0.05 | 0.00 | 86 | 1014.1 |
| 20260508104045 | 70 | 24 | 3.0 | 8.0 | 0.00 | 0.05 | 0.00 | 86 | 1014.0 |
| 20260508103545 | 70 | 22 | 2.0 | 8.0 | 0.00 | 0.05 | 0.00 | 86 | 1014.1 |
| 20260508103105 | 70 | 17 | 4.0 | 9.0 | 0.00 | 0.05 | 0.00 | 86 | 1014.2 |
| 20260508102545 | 70 | 28 | 4.0 | 9.0 | 0.00 | 0.05 | 0.00 | 86 | 1013.9 |
| 20260508102045 | 70 | 44 | 5.0 | 9.0 | 0.00 | 0.05 | 0.00 | 86 | 1014.0 |
| 20260508101556 | 70 | 29 | 3.0 | 9.0 | 0.00 | 0.05 | 0.00 | 86 | 1013.8 |
| 20260508101048 | 71 | 10 | 4.0 | 9.0 | 0.00 | 0.05 | 0.00 | 86 | 1013.8 |
| 20260508100545 | 71 | 12 | 4.0 | 8.0 | 0.00 | 0.05 | 0.00 | 86 | 1013.7 |
| 20260508100052 | 71 | 34 | 3.0 | 8.0 | 0.00 | 0.05 | 0.00 | 86 | 1013.7 |
| 20260508095545 | 71 | 30 | 4.0 | 8.0 | 0.00 | 0.05 | 0.00 | 86 | 1013.7 |
| 20260508095047 | 71 | 22 | 4.0 | 10.0 | 0.00 | 0.05 | 0.00 | 86 | 1013.7 |
| 20260508094554 | 71 | 28 | 4.0 | 10.0 | 0.00 | 0.05 | 0.00 | 86 | 1013.6 |
| 20260508094044 | 71 | 341 | 3.0 | 10.0 | 0.00 | 0.05 | 0.00 | 86 | 1013.5 |
| 20260508093546 | 71 | 5 | 3.0 | 10.0 | 0.00 | 0.05 | 0.00 | 86 | 1013.4 |
| 20260508093050 | 71 | 43 | 5.0 | 10.0 | 0.00 | 0.05 | 0.00 | 86 | 1013.2 |
| 20260508092544 | 71 | 35 | 5.0 | 11.0 | 0.00 | 0.05 | 0.00 | 86 | 1013.3 |
| 20260508092044 | 71 | 53 | 3.0 | 11.0 | 0.00 | 0.05 | 0.00 | 86 | 1013.3 |
| 20260508091556 | 71 | 348 | 4.0 | 10.0 | 0.00 | 0.05 | 0.00 | 87 | 1013.3 |
| 20260508091045 | 71 | 32 | 4.0 | 10.0 | 0.00 | 0.05 | 0.00 | 87 | 1013.3 |
| 20260508090547 | 71 | 15 | 5.0 | 10.0 | 0.00 | 0.05 | 0.00 | 87 | 1013.2 |
| 20260508085545 | 71 | 5 | 4.0 | 10.0 | 0.00 | 0.05 | 0.00 | 87 | 1013.2 |
| 20260508085045 | 71 | 36 | 6.0 | 10.0 | 0.00 | 0.05 | 0.00 | 87 | 1013.3 |
| 20260508084554 | 72 | 34 | 5.0 | 9.0 | 0.00 | 0.05 | 0.00 | 87 | 1013.1 |
| 20260508084045 | 72 | 24 | 4.0 | 9.0 | 0.00 | 0.05 | 0.00 | 87 | 1013.1 |
| 20260508083546 | 72 | 26 | 4.0 | 9.0 | 0.00 | 0.05 | 0.00 | 87 | 1013.1 |
| 20260508083055 | 72 | 5 | 4.0 | 11.0 | 0.00 | 0.05 | 0.00 | 87 | 1013.3 |
| 20260508082545 | 72 | 29 | 5.0 | 13.0 | 0.00 | 0.05 | 0.00 | 87 | 1013.1 |
| 20260508082045 | 72 | 355 | 5.0 | 13.0 | 0.00 | 0.05 | 0.00 | 87 | 1013.0 |
| 20260508081605 | 72 | 338 | 7.0 | 13.0 | 0.00 | 0.05 | 0.00 | 87 | 1012.9 |
| 20260508081044 | 73 | 24 | 6.0 | 9.0 | 0.00 | 0.05 | 0.00 | 87 | 1013.0 |
| 20260508080544 | 73 | 34 | 4.0 | 8.0 | 0.00 | 0.05 | 0.00 | 87 | 1013.1 |
| 20260508080053 | 73 | 15 | 4.0 | 8.0 | 0.00 | 0.05 | 0.00 | 88 | 1013.2 |
| 20260508075544 | 73 | 15 | 3.0 | 8.0 | 0.00 | 0.05 | 0.00 | 88 | 1013.2 |
| 20260508075044 | 73 | 25 | 2.0 | 8.0 | 0.00 | 0.05 | 0.00 | 88 | 1013.2 |
| 20260508074553 | 73 | 9 | 3.0 | 8.0 | 0.00 | 0.05 | 0.00 | 88 | 1013.4 |
| 20260508074045 | 73 | 360 | 3.0 | 7.0 | 0.00 | 0.05 | 0.00 | 88 | 1013.5 |
| 20260508073547 | 74 | 355 | 3.0 | 7.0 | 0.00 | 0.05 | 0.00 | 88 | 1013.6 |
| 20260508073102 | 74 | 9 | 2.0 | 9.0 | 0.00 | 0.05 | 0.00 | 88 | 1013.4 |
| 20260508072546 | 74 | 15 | 4.0 | 9.0 | 0.00 | 0.05 | 0.00 | 88 | 1013.3 |
| 20260508072048 | 74 | 17 | 4.0 | 9.0 | 0.00 | 0.05 | 0.00 | 88 | 1013.3 |
| 20260508071550 | 74 | 13 | 3.0 | 5.0 | 0.00 | 0.05 | 0.00 | 88 | 1013.3 |
| 20260508071048 | 74 | 17 | 2.0 | 6.0 | 0.00 | 0.05 | 0.00 | 88 | 1013.4 |
| 20260508070545 | 74 | 347 | 2.0 | 6.0 | 0.00 | 0.05 | 0.00 | 88 | 1013.5 |
| 20260508070054 | 74 | 355 | 3.0 | 5.0 | 0.00 | 0.05 | 0.00 | 88 | 1013.5 |
| 20260508065548 | 74 | 348 | 2.0 | 4.0 | 0.00 | 0.05 | 0.00 | 88 | 1013.5 |
| 20260508065044 | 74 | 335 | 1.0 | 4.0 | 0.00 | 0.05 | 0.00 | 88 | 1013.6 |
| 20260508064606 | 74 | 0 | 0.0 | 0.0 | 0.00 | 0.05 | 0.00 | 88 | 1013.5 |
| 20260508064046 | 75 | 0 | 0.0 | 2.0 | 0.00 | 0.05 | 0.00 | 88 | 1013.6 |
| 20260508063545 | 75 | 0 | 0.0 | 3.0 | 0.00 | 0.05 | 0.00 | 88 | 1013.6 |
| 20260508063050 | 75 | 0 | 0.0 | 3.0 | 0.00 | 0.05 | 0.00 | 88 | 1013.6 |
| 20260508062545 | 75 | 290 | 0.0 | 3.0 | 0.00 | 0.05 | 0.00 | 88 | 1013.6 |
| 20260508062045 | 75 | 0 | 0.0 | 3.0 | 0.00 | 0.05 | 0.00 | 88 | 1013.6 |
| 20260508061601 | 75 | 0 | 0.0 | 3.0 | 0.00 | 0.05 | 0.00 | 88 | 1013.8 |
| 20260508061045 | 75 | 0 | 1.0 | 3.0 | 0.00 | 0.05 | 0.00 | 88 | 1013.6 |
| 20260508060546 | 75 | 284 | 1.0 | 4.0 | 0.00 | 0.05 | 0.00 | 88 | 1013.8 |
| 20260508060052 | 75 | 0 | 1.0 | 4.0 | 0.00 | 0.05 | 0.00 | 88 | 1013.7 |
| 20260508055549 | 75 | 317 | 1.0 | 4.0 | 0.00 | 0.05 | 0.00 | 88 | 1013.7 |
| 20260508055045 | 75 | 0 | 0.0 | 0.0 | 0.00 | 0.05 | 0.00 | 88 | 1013.9 |
| 20260508054617 | 75 | 0 | 0.0 | 0.0 | 0.00 | 0.05 | 0.00 | 88 | 1014.0 |
| 20260508054046 | 75 | 0 | 0.0 | 0.0 | 0.00 | 0.05 | 0.00 | 88 | 1014.1 |
| 20260508053545 | 75 | 0 | 0.0 | 0.0 | 0.00 | 0.05 | 0.00 | 88 | 1014.2 |
| 20260508053051 | 75 | 0 | 0.0 | 0.0 | 0.00 | 0.05 | 0.00 | 88 | 1014.2 |
| 20260508052550 | 75 | 0 | 0.0 | 0.0 | 0.00 | 0.05 | 0.00 | 87 | 1014.2 |
| 20260508052047 | 75 | 0 | 0.0 | 0.0 | 0.00 | 0.05 | 0.00 | 87 | 1014.0 |
| 20260508051558 | 75 | 0 | 0.0 | 2.0 | 0.00 | 0.05 | 0.00 | 87 | 1014.1 |
| 20260508051046 | 75 | 0 | 0.0 | 4.0 | 0.00 | 0.05 | 0.00 | 88 | 1014.0 |
| 20260508050546 | 75 | 278 | 1.0 | 4.0 | 0.00 | 0.05 | 0.00 | 87 | 1014.2 |
| 20260508050054 | 75 | 275 | 2.0 | 4.0 | 0.00 | 0.05 | 0.00 | 87 | 1014.3 |
| 20260508045544 | 75 | 273 | 1.0 | 4.0 | 0.00 | 0.05 | 0.05 | 87 | 1014.1 |
| 20260508045044 | 75 | 280 | 2.0 | 4.0 | 0.00 | 0.05 | 0.05 | 87 | 1014.0 |
| 20260508044551 | 75 | 267 | 1.0 | 3.0 | 0.00 | 0.05 | 0.05 | 87 | 1013.9 |
| 20260508044048 | 75 | 0 | 1.0 | 6.0 | 0.00 | 0.05 | 0.05 | 87 | 1013.9 |
| 20260508043548 | 75 | 0 | 2.0 | 8.0 | 0.00 | 0.05 | 0.05 | 87 | 1014.0 |
| 20260508043056 | 75 | 279 | 1.0 | 8.0 | 0.00 | 0.05 | 0.05 | 87 | 1014.1 |
| 20260508042550 | 75 | 257 | 4.0 | 8.0 | 0.00 | 0.05 | 0.05 | 87 | 1014.2 |
| 20260508042047 | 75 | 277 | 2.0 | 6.0 | 0.00 | 0.05 | 0.05 | 87 | 1014.2 |
| 20260508041551 | 75 | 261 | 1.0 | 4.0 | 0.00 | 0.05 | 0.05 | 87 | 1014.1 |
| 20260508041048 | 75 | 260 | 0.0 | 4.0 | 0.00 | 0.05 | 0.05 | 87 | 1014.1 |
| 20260508040548 | 75 | 294 | 1.0 | 4.0 | 0.00 | 0.05 | 0.05 | 86 | 1014.3 |
| 20260508040057 | 75 | 293 | 2.0 | 4.0 | 0.00 | 0.05 | 0.05 | 86 | 1014.4 |
| 20260508035551 | 75 | 317 | 1.0 | 3.0 | 0.00 | 0.05 | 0.05 | 86 | 1014.4 |
| 20260508035048 | 75 | 282 | 1.0 | 3.0 | 0.00 | 0.05 | 0.05 | 86 | 1014.4 |
| 20260508034550 | 75 | 287 | 1.0 | 4.0 | 0.00 | 0.05 | 0.05 | 86 | 1014.3 |
| 20260508034048 | 75 | 0 | 1.0 | 4.0 | 0.00 | 0.05 | 0.05 | 86 | 1014.4 |
| 20260508033547 | 75 | 337 | 1.0 | 6.0 | 0.00 | 0.05 | 0.05 | 86 | 1014.5 |
| 20260508033050 | 75 | 311 | 1.0 | 7.0 | 0.00 | 0.05 | 0.05 | 86 | 1014.4 |
| 20260508032548 | 75 | 302 | 2.0 | 7.0 | 0.00 | 0.05 | 0.05 | 86 | 1014.5 |
| 20260508032050 | 75 | 296 | 1.0 | 6.0 | 0.00 | 0.05 | 0.05 | 86 | 1014.5 |
| 20260508031557 | 75 | 317 | 2.0 | 6.0 | 0.00 | 0.05 | 0.05 | 86 | 1014.4 |
| 20260508031048 | 75 | 306 | 2.0 | 5.0 | 0.00 | 0.05 | 0.05 | 86 | 1014.3 |
| 20260508030548 | 75 | 0 | 0.0 | 4.0 | 0.00 | 0.05 | 0.05 | 86 | 1014.1 |
| 20260508030057 | 75 | 0 | 0.0 | 0.0 | 0.00 | 0.05 | 0.05 | 85 | 1013.9 |
| 20260508025546 | 75 | 0 | 0.0 | 0.0 | 0.00 | 0.05 | 0.05 | 85 | 1013.9 |
| 20260508025048 | 75 | 0 | 0.0 | 3.0 | 0.00 | 0.05 | 0.05 | 85 | 1013.8 |
| 20260508024550 | 75 | 0 | 0.0 | 4.0 | 0.00 | 0.05 | 0.05 | 85 | 1013.8 |
| 20260508024048 | 75 | 275 | 1.0 | 4.0 | 0.00 | 0.05 | 0.05 | 85 | 1013.8 |
| 20260508023547 | 75 | 272 | 1.0 | 4.0 | 0.00 | 0.05 | 0.05 | 85 | 1013.7 |
| 20260508023054 | 75 | 0 | 1.0 | 3.0 | 0.00 | 0.05 | 0.05 | 85 | 1013.7 |
| 20260508022548 | 75 | 286 | 1.0 | 3.0 | 0.00 | 0.05 | 0.05 | 85 | 1013.7 |
| 20260508022048 | 75 | 0 | 0.0 | 3.0 | 0.00 | 0.05 | 0.05 | 85 | 1013.8 |
| 20260508021559 | 75 | 0 | 0.0 | 3.0 | 0.00 | 0.05 | 0.05 | 85 | 1013.7 |
| 20260508021048 | 75 | 275 | 0.0 | 3.0 | 0.00 | 0.05 | 0.05 | 85 | 1013.8 |
| 20260508020547 | 75 | 275 | 0.0 | 3.0 | 0.00 | 0.05 | 0.05 | 85 | 1013.7 |
| 20260508020053 | 75 | 0 | 1.0 | 3.0 | 0.00 | 0.05 | 0.05 | 84 | 1013.7 |
| 20260508015547 | 75 | 275 | 1.0 | 3.0 | 0.00 | 0.05 | 0.05 | 84 | 1013.7 |
| 20260508015048 | 75 | 0 | 1.0 | 4.0 | 0.00 | 0.05 | 0.05 | 84 | 1013.6 |
| 20260508014551 | 75 | 274 | 0.0 | 4.0 | 0.00 | 0.05 | 0.05 | 84 | 1013.5 |
| 20260508014047 | 75 | 0 | 0.0 | 4.0 | 0.00 | 0.05 | 0.05 | 84 | 1013.5 |
| 20260508013547 | 75 | 0 | 0.0 | 3.0 | 0.00 | 0.05 | 0.05 | 84 | 1013.3 |
| 20260508013054 | 75 | 275 | 0.0 | 3.0 | 0.00 | 0.05 | 0.05 | 84 | 1013.3 |
| 20260508012548 | 75 | 275 | 0.0 | 3.0 | 0.00 | 0.05 | 0.05 | 84 | 1013.3 |
| 20260508012052 | 75 | 274 | 0.0 | 4.0 | 0.00 | 0.05 | 0.05 | 83 | 1013.3 |
| 20260508011556 | 75 | 273 | 1.0 | 4.0 | 0.00 | 0.05 | 0.05 | 83 | 1013.2 |
| 20260508011048 | 75 | 263 | 0.0 | 3.0 | 0.00 | 0.05 | 0.05 | 83 | 1013.3 |
| 20260508010547 | 75 | 263 | 1.0 | 4.0 | 0.00 | 0.05 | 0.05 | 83 | 1013.3 |
| 20260508010048 | 75 | 257 | 0.0 | 4.0 | 0.00 | 0.05 | 0.05 | 83 | 1013.3 |
| 20260508005551 | 75 | 0 | 1.0 | 4.0 | 0.00 | 0.05 | 0.05 | 83 | 1013.2 |
| 20260508005050 | 75 | 294 | 2.0 | 4.0 | 0.00 | 0.05 | 0.05 | 84 | 1013.2 |
| 20260508004549 | 74 | 269 | 2.0 | 4.0 | 0.00 | 0.05 | 0.05 | 84 | 1013.2 |
| 20260508004047 | 74 | 244 | 0.0 | 4.0 | 0.00 | 0.05 | 0.05 | 84 | 1013.1 |
| 20260508003547 | 75 | 0 | 0.0 | 6.0 | 0.00 | 0.05 | 0.05 | 84 | 1013.2 |
| 20260508003048 | 75 | 232 | 1.0 | 7.0 | 0.00 | 0.05 | 0.05 | 85 | 1013.2 |
| 20260508002547 | 75 | 297 | 3.0 | 8.0 | 0.00 | 0.05 | 0.05 | 85 | 1013.2 |
| 20260508002047 | 76 | 235 | 2.0 | 10.0 | 0.00 | 0.05 | 0.05 | 86 | 1013.0 |
| 20260508001552 | 77 | 273 | 2.0 | 11.0 | 0.00 | 0.05 | 0.05 | 86 | 1012.9 |
| 20260508001048 | 77 | 261 | 4.0 | 11.0 | 0.00 | 0.05 | 0.05 | 86 | 1012.9 |
| 20260508000547 | 77 | 246 | 4.0 | 11.0 | 0.00 | 0.05 | 0.05 | 86 | 1013.0 |
| 20260508000113 | 77 | 244 | 6.0 | 11.0 | 0.00 | 0.05 | 0.05 | 86 | 1013.0 |
| 20260507235551 | 77 | 215 | 5.0 | 14.0 | 0.00 | 0.05 | 0.05 | 86 | 1013.0 |
| 20260507235047 | 77 | 228 | 8.0 | 14.0 | 0.00 | 0.05 | 0.05 | 86 | 1013.0 |
| 20260507234557 | 77 | 239 | 4.0 | 13.0 | 0.00 | 0.05 | 0.05 | 86 | 1012.8 |
| 20260507234052 | 78 | 251 | 5.0 | 15.0 | 0.00 | 0.05 | 0.05 | 86 | 1012.9 |
| 20260507233547 | 78 | 263 | 7.0 | 15.0 | 0.00 | 0.05 | 0.05 | 86 | 1012.8 |
| 20260507233056 | 78 | 223 | 5.0 | 12.0 | 0.00 | 0.05 | 0.05 | 86 | 1012.8 |
| 20260507232547 | 78 | 232 | 5.0 | 12.0 | 0.00 | 0.05 | 0.05 | 86 | 1012.9 |
| 20260507232047 | 78 | 236 | 3.0 | 11.0 | 0.00 | 0.05 | 0.05 | 86 | 1012.9 |
| 20260507231604 | 78 | 218 | 5.0 | 11.0 | 0.00 | 0.05 | 0.05 | 86 | 1012.7 |
| 20260507231049 | 78 | 213 | 4.0 | 11.0 | 0.00 | 0.05 | 0.05 | 86 | 1012.7 |
| 20260507230549 | 78 | 226 | 4.0 | 13.0 | 0.00 | 0.05 | 0.05 | 86 | 1012.7 |
| 20260507230101 | 79 | 0 | 4.0 | 13.0 | 0.00 | 0.05 | 0.05 | 86 | 1012.7 |
| 20260507225548 | 79 | 216 | 6.0 | 13.0 | 0.00 | 0.05 | 0.05 | 86 | 1012.7 |
| 20260507225048 | 79 | 235 | 4.0 | 11.0 | 0.01 | 0.05 | 0.05 | 87 | 1012.7 |
| 20260507224556 | 79 | 243 | 6.0 | 14.0 | 0.01 | 0.05 | 0.05 | 87 | 1012.7 |
| 20260507224048 | 79 | 219 | 6.0 | 14.0 | 0.01 | 0.05 | 0.05 | 87 | 1012.7 |
| 20260507223551 | 79 | 176 | 3.0 | 10.0 | 0.01 | 0.05 | 0.05 | 88 | 1012.7 |
| 20260507223051 | 79 | 0 | 4.0 | 13.0 | 0.01 | 0.05 | 0.05 | 88 | 1012.7 |
| 20260507222547 | 78 | 219 | 4.0 | 13.0 | 0.01 | 0.05 | 0.05 | 88 | 1012.7 |
| 20260507222047 | 78 | 223 | 6.0 | 12.0 | 0.01 | 0.05 | 0.05 | 88 | 1012.9 |
| 20260507221600 | 78 | 233 | 6.0 | 12.0 | 0.01 | 0.05 | 0.05 | 88 | 1012.8 |
| 20260507221047 | 78 | 186 | 5.0 | 11.0 | 0.02 | 0.05 | 0.05 | 88 | 1012.5 |
| 20260507220547 | 78 | 192 | 4.0 | 11.0 | 0.02 | 0.05 | 0.05 | 88 | 1012.6 |
| 20260507220053 | 78 | 190 | 5.0 | 11.0 | 0.02 | 0.05 | 0.05 | 87 | 1012.8 |
| 20260507215543 | 78 | 192 | 4.0 | 10.0 | 0.02 | 0.05 | 0.05 | 87 | 1012.7 |
| 20260507215043 | 78 | 148 | 4.0 | 9.0 | 0.01 | 0.04 | 0.04 | 87 | 1012.4 |
| 20260507214551 | 78 | 200 | 4.0 | 10.0 | 0.01 | 0.04 | 0.04 | 86 | 1012.9 |
| 20260507214042 | 78 | 200 | 4.0 | 10.0 | 0.01 | 0.04 | 0.04 | 86 | 1013.1 |
| 20260507213543 | 78 | 172 | 4.0 | 12.0 | 0.01 | 0.04 | 0.04 | 86 | 1013.0 |
| 20260507213050 | 78 | 191 | 5.0 | 12.0 | 0.01 | 0.04 | 0.04 | 86 | 1013.4 |
| 20260507212544 | 78 | 227 | 4.0 | 12.0 | 0.01 | 0.04 | 0.04 | 85 | 1013.6 |
| 20260507212044 | 78 | 229 | 5.0 | 12.0 | 0.01 | 0.04 | 0.04 | 85 | 1013.4 |
| 20260507211558 | 78 | 223 | 5.0 | 11.0 | 0.01 | 0.04 | 0.04 | 85 | 1013.4 |
| 20260507211046 | 78 | 221 | 3.0 | 12.0 | 0.00 | 0.03 | 0.03 | 85 | 1013.1 |
| 20260507210544 | 79 | 217 | 4.0 | 12.0 | 0.00 | 0.03 | 0.03 | 85 | 1013.4 |
| 20260507210052 | 79 | 242 | 6.0 | 13.0 | 0.00 | 0.03 | 0.03 | 85 | 1013.4 |
| 20260507205544 | 79 | 217 | 6.0 | 13.0 | 0.00 | 0.03 | 0.03 | 85 | 1013.4 |
| 20260507205044 | 79 | 235 | 2.0 | 14.0 | 0.00 | 0.03 | 0.03 | 86 | 1013.5 |
| 20260507204550 | 79 | 215 | 4.0 | 14.0 | 0.00 | 0.03 | 0.03 | 86 | 1013.3 |
| 20260507204043 | 79 | 238 | 3.0 | 12.0 | 0.00 | 0.03 | 0.03 | 86 | 1013.4 |
| 20260507203544 | 79 | 188 | 5.0 | 12.0 | 0.00 | 0.03 | 0.03 | 86 | 1013.5 |
| 20260507203052 | 79 | 229 | 6.0 | 12.0 | 0.00 | 0.03 | 0.03 | 86 | 1013.4 |
| 20260507202545 | 78 | 216 | 6.0 | 16.0 | 0.00 | 0.03 | 0.03 | 86 | 1013.4 |
| 20260507202045 | 78 | 223 | 6.0 | 16.0 | 0.00 | 0.03 | 0.03 | 86 | 1013.5 |
| 20260507201547 | 78 | 196 | 6.0 | 15.0 | 0.00 | 0.03 | 0.03 | 86 | 1013.7 |
| 20260507201045 | 78 | 238 | 3.0 | 12.0 | 0.00 | 0.03 | 0.03 | 86 | 1013.5 |
| 20260507200545 | 79 | 192 | 4.0 | 12.0 | 0.01 | 0.03 | 0.03 | 85 | 1013.4 |
| 20260507200051 | 79 | 191 | 5.0 | 11.0 | 0.01 | 0.03 | 0.03 | 85 | 1013.6 |
| 20260507195544 | 79 | 209 | 5.0 | 11.0 | 0.03 | 0.03 | 0.03 | 85 | 1013.7 |
| 20260507195044 | 79 | 215 | 4.0 | 10.0 | 0.03 | 0.03 | 0.03 | 85 | 1013.7 |
| 20260507194550 | 79 | 234 | 4.0 | 15.0 | 0.03 | 0.03 | 0.03 | 85 | 1013.6 |
| 20260507194044 | 79 | 246 | 7.0 | 15.0 | 0.03 | 0.03 | 0.03 | 85 | 1013.7 |
| 20260507193543 | 79 | 252 | 4.0 | 12.0 | 0.03 | 0.03 | 0.03 | 85 | 1013.7 |
| 20260507193056 | 79 | 223 | 5.0 | 14.0 | 0.03 | 0.03 | 0.03 | 85 | 1013.8 |
| 20260507192543 | 79 | 212 | 5.0 | 14.0 | 0.03 | 0.03 | 0.03 | 84 | 1013.6 |
| 20260507192043 | 80 | 213 | 4.0 | 13.0 | 0.03 | 0.03 | 0.03 | 84 | 1013.8 |
| 20260507191549 | 80 | 188 | 5.0 | 13.0 | 0.03 | 0.03 | 0.03 | 83 | 1013.7 |
| 20260507191044 | 80 | 217 | 6.0 | 16.0 | 0.03 | 0.03 | 0.03 | 82 | 1013.7 |
| 20260507190543 | 81 | 187 | 9.0 | 16.0 | 0.02 | 0.02 | 0.02 | 81 | 1013.7 |
| 20260507190053 | 81 | 212 | 7.0 | 16.0 | 0.02 | 0.02 | 0.02 | 81 | 1013.8 |
| 20260507185546 | 81 | 234 | 7.0 | 14.0 | 0.00 | 0.00 | 0.00 | 79 | 1013.9 |
| 20260507185047 | 82 | 214 | 5.0 | 14.0 | 0.00 | 0.00 | 0.00 | 78 | 1014.0 |
| 20260507184549 | 82 | 182 | 6.0 | 14.0 | 0.00 | 0.00 | 0.00 | 78 | 1014.1 |
| 20260507184048 | 82 | 182 | 7.0 | 17.0 | 0.00 | 0.00 | 0.00 | 78 | 1014.3 |
| 20260507183548 | 83 | 198 | 8.0 | 17.0 | 0.00 | 0.00 | 0.00 | 77 | 1014.4 |
| 20260507183051 | 84 | 188 | 7.0 | 18.0 | 0.00 | 0.00 | 0.00 | 75 | 1014.2 |
| 20260507182548 | 84 | 184 | 7.0 | 18.0 | 0.00 | 0.00 | 0.00 | 77 | 1014.3 |
| 20260507182046 | 83 | 217 | 9.0 | 18.0 | 0.00 | 0.00 | 0.00 | 77 | 1014.3 |
| 20260507181548 | 83 | 219 | 8.0 | 16.0 | 0.00 | 0.00 | 0.00 | 78 | 1014.4 |
| 20260507181046 | 83 | 161 | 6.0 | 14.0 | 0.00 | 0.00 | 0.00 | 77 | 1014.5 |
| 20260507180550 | 83 | 192 | 7.0 | 12.0 | 0.00 | 0.00 | 0.00 | 78 | 1014.4 |
| 20260507180055 | 82 | 196 | 7.0 | 15.0 | 0.00 | 0.00 | 0.00 | 80 | 1014.5 |
| 20260507175545 | 82 | 182 | 7.0 | 15.0 | 0.00 | 0.00 | 0.00 | 78 | 1014.5 |
| 20260507175046 | 82 | 232 | 5.0 | 12.0 | 0.00 | 0.00 | 0.00 | 79 | 1014.7 |
| 20260507174617 | 82 | 215 | 6.0 | 13.0 | 0.00 | 0.00 | 0.00 | 78 | 1014.9 |
| 20260507174046 | 82 | 209 | 7.0 | 13.0 | 0.00 | 0.00 | 0.00 | 78 | 1015.0 |
| 20260507173546 | 82 | 203 | 6.0 | 15.0 | 0.00 | 0.00 | 0.00 | 81 | 1015.2 |
| 20260507173056 | 82 | 172 | 7.0 | 16.0 | 0.00 | 0.00 | 0.00 | 78 | 1015.3 |
| 20260507172545 | 82 | 222 | 7.0 | 16.0 | 0.00 | 0.00 | 0.00 | 78 | 1015.3 |
| 20260507172045 | 82 | 204 | 8.0 | 13.0 | 0.00 | 0.00 | 0.00 | 78 | 1015.3 |
| 20260507171610 | 82 | 203 | 6.0 | 13.0 | 0.00 | 0.00 | 0.00 | 81 | 1015.2 |
| 20260507171049 | 81 | 159 | 6.0 | 12.0 | 0.00 | 0.00 | 0.00 | 79 | 1015.3 |
| 20260507170548 | 81 | 218 | 7.0 | 18.0 | 0.00 | 0.00 | 0.00 | 79 | 1015.5 |
| 20260507170052 | 81 | 218 | 5.0 | 18.0 | 0.00 | 0.00 | 0.00 | 79 | 1015.6 |
| 20260507165550 | 82 | 262 | 6.0 | 12.0 | 0.00 | 0.00 | 0.00 | 79 | 1015.7 |
| 20260507165049 | 82 | 202 | 5.0 | 11.0 | 0.00 | 0.00 | 0.00 | 78 | 1015.8 |
| 20260507164556 | 82 | 212 | 7.0 | 12.0 | 0.00 | 0.00 | 0.00 | 78 | 1015.8 |